Change the Weather History Date:

Sunday, May 5, 2013

  Actual Average Record
Temperature  
Mean Temperature 73 °F 76 °F  
Max Temperature 88 °F 88 °F 104 °F (1906)
Min Temperature 57 °F 65 °F 48 °F (1979)
Degree Days  
Heating Degree Days 0 0  
Month to date heating degree days 4 0  
Since 1 July heating degree days 1013 1375  
Cooling Degree Days 8 11  
Month to date cooling degree days 32 55  
Year to date cooling degree days 458 384  
Growing Degree Days 22 (Base 50)    
Moisture  
Dew Point 30 °F    
Average Humidity 23    
Maximum Humidity 33    
Minimum Humidity 12    
Precipitation  
Precipitation 0.00 in 0.07 in 1.33 in (1963)
Month to date precipitation 0.00 0.36  
Year to date precipitation 1.75 4.75  
Sea Level Pressure  
Sea Level Pressure 29.98 in    
Wind  
Wind Speed 7 mph (East)    
Max Wind Speed 15 mph    
Max Gust Speed 17 mph    
Visibility 10 miles    
Events      
T = Trace of Precipitation, MM = Missing Value Source: NWS Daily Summary

Daily Weather History Graph

Daily Weather History Graph

Search for Another Location

Airport or City:

Trip Planner

Search our weather history database for the weather conditions in past years. The results will help you decide how hot, cold, wet, or windy it might be!

Date:

Astronomy

May. 05, 2013 Rise Set
Actual Time 6:58 AM CDT 8:22 PM CDT
Civil Twilight 6:32 AM CDT 8:48 PM CDT
Nautical Twilight 6:02 AM CDT 9:18 PM CDT
Astronomical Twilight 5:31 AM CDT 9:50 PM CDT
Moon 4:10 AM CDT (5/5) 4:41 PM CDT (5/5)
Length of Visible Light 14h 15m
Length of Day
13h 24m
Waning Crescent, 18% of the Moon is Illuminated
May 5
Waning Crescent
May 9
New
May 17
First Quarter
May 24
Full
May 31
Last Quarter

Hourly Weather History & Observations

Time (CDT) Temp. Dew Point Humidity Pressure Visibility Wind Dir Wind Speed Gust Speed Precip Events Conditions
12:53 AM 64.9 °F 23.0 °F 20% 29.92 in 10.0 mi ENE 6.9 mph - N/A   Clear
1:53 AM 62.1 °F 25.0 °F 24% 29.92 in 10.0 mi Calm Calm - N/A   Clear
2:53 AM 59.0 °F 27.0 °F 29% 29.91 in 10.0 mi ENE 3.5 mph - N/A   Clear
3:53 AM 61.0 °F 26.1 °F 26% 29.92 in 10.0 mi ENE 9.2 mph - N/A   Clear
4:53 AM 60.1 °F 26.1 °F 27% 29.94 in 10.0 mi ENE 8.1 mph - N/A   Clear
5:53 AM 57.9 °F 27.0 °F 31% 29.96 in 10.0 mi ENE 3.5 mph - N/A   Clear
6:53 AM 57.0 °F 28.0 °F 33% 29.99 in 10.0 mi ENE 6.9 mph - N/A   Clear
7:53 AM 60.1 °F 30.9 °F 33% 30.02 in 10.0 mi ENE 5.8 mph - N/A   Clear
8:53 AM 66.9 °F 33.1 °F 28% 30.04 in 10.0 mi ENE 9.2 mph - N/A   Clear
9:53 AM 72.0 °F 37.0 °F 28% 30.06 in 10.0 mi ESE 6.9 mph - N/A   Clear
10:53 AM 75.0 °F 37.9 °F 26% 30.07 in 10.0 mi Calm Calm - N/A   Clear
11:53 AM 80.1 °F 37.9 °F 22% 30.07 in 10.0 mi East 5.8 mph - N/A   Clear
12:53 PM 82.4 °F 37.4 °F 20% 30.09 in 10.0 mi Variable 4.6 mph - N/A   Clear
1:53 PM 84.0 °F 35.1 °F 17% 30.02 in 10.0 mi NNE 5.8 mph - N/A   Clear
2:53 PM 84.9 °F 33.1 °F 16% 30.00 in 10.0 mi East 9.2 mph - N/A   Clear
3:53 PM 87.1 °F 32.0 °F 14% 29.97 in 10.0 mi ESE 11.5 mph 17.3 mph N/A   Clear
4:53 PM 87.1 °F 30.0 °F 13% 29.94 in 10.0 mi SSE 5.8 mph - N/A   Clear
5:53 PM 88.0 °F 28.0 °F 12% 29.93 in 10.0 mi East 4.6 mph - N/A   Clear
6:53 PM 87.1 °F 28.9 °F 12% 29.92 in 10.0 mi SSE 6.9 mph - N/A   Clear
7:53 PM 84.0 °F 30.0 °F 14% 29.92 in 10.0 mi SSE 10.4 mph - N/A   Clear
8:53 PM 80.1 °F 30.0 °F 16% 29.94 in 10.0 mi SE 4.6 mph - N/A   Clear
9:53 PM 78.1 °F 30.0 °F 17% 29.96 in 10.0 mi ESE 6.9 mph - N/A   Clear
10:53 PM 73.9 °F 28.9 °F 19% 29.97 in 10.0 mi ESE 6.9 mph - N/A   Clear
11:53 PM 73.0 °F 28.0 °F 19% 29.97 in 10.0 mi ESE 10.4 mph - N/A   Clear